Weather History for Frenchville, ME

Change the Weather History Date:

Thursday, October 6, 2011

  Actual Average Record
Temperature  
Mean Temperature 35 °F 45 °F  
Max Temperature 42 °F 54 °F 64 °F (1997)
Min Temperature 28 °F 37 °F 28 °F (1998)
Degree Days  
Heating Degree Days 30    
Month to date heating degree days 122  
Since 1 July heating degree days 506  
Cooling Degree Days 0    
Month to date cooling degree days 0  
Year to date cooling degree days 84  
Moisture  
Dew Point 21 °F    
Average Humidity 58    
Maximum Humidity 72    
Minimum Humidity 41    
Precipitation  
Precipitation 0.00 in 0.09 in 0.49 in (2012)
Month to date precipitation 0.89 0.52  
Year to date precipitation 35.50 26.10  
Sea Level Pressure  
Sea Level Pressure 30.16 in    
Wind  
Wind Speed 13 mph (NNW)    
Max Wind Speed 28 mph    
Max Gust Speed 39 mph    
Visibility 10 miles    
Events      
T = Trace of Precipitation, MM = Missing Value Source: NWS Daily Summary

Daily Weather History Graph

Daily Weather History Graph

Search for Another Location

Airport:

Trip Planner

Search our weather history database for the weather conditions in past years. The results will help you decide how hot, cold, wet, or windy it might be!

Date:

Astronomy

Oct. 06, 2011 Rise Set
Actual Time 6:38 AM EDT 6:03 PM EDT
Civil Twilight 6:08 AM EDT 6:33 PM EDT
Nautical Twilight 5:32 AM EDT 7:09 PM EDT
Astronomical Twilight 4:56 AM EDT 7:45 PM EDT
Moon 3:32 PM EDT (10/6) 1:03 AM EDT (10/6)
Length of Visible Light 12h 25m
Length of Day
11h 24m
Waxing Gibbous, 75% of the Moon is Illuminated
Oct 6
Waxing Gibbous
Oct 11
Full
Oct 19
Last Quarter
Oct 26
New
Nov 2
First Quarter

Hourly Weather History & Observations

Time (EDT) Temp. Windchill Dew Point Humidity Pressure Visibility Wind Dir Wind Speed Gust Speed Precip Events Conditions
12:53 AM 32.0 °F 22.1 °F 23.0 °F 69% 30.06 in 10.0 mi NNW 13.8 mph 23.0 mph N/A   Partly Cloudy
1:53 AM 32.0 °F 23.0 °F 21.9 °F 66% 30.07 in 10.0 mi NNW 11.5 mph - N/A   Clear
2:53 AM 30.9 °F 21.2 °F 23.0 °F 72% 30.07 in 10.0 mi NW 12.7 mph - N/A   Clear
3:53 AM 30.9 °F 20.7 °F 21.9 °F 69% 30.07 in 10.0 mi NNW 13.8 mph 24.2 mph N/A   Clear
4:53 AM 30.9 °F 19.8 °F 21.9 °F 69% 30.08 in 10.0 mi NNW 16.1 mph 27.6 mph N/A   Clear
5:53 AM 30.9 °F 20.2 °F 21.0 °F 67% 30.09 in 10.0 mi NNW 15.0 mph 26.5 mph N/A   Clear
6:53 AM 30.0 °F 18.3 °F 21.9 °F 72% 30.11 in 10.0 mi NW 17.3 mph 23.0 mph N/A   Mostly Cloudy
7:53 AM 32.0 °F 20.5 °F 21.2 °F 64% 30.10 in 10.0 mi NNW 18.4 mph 27.6 mph N/A   Partly Cloudy
8:53 AM 34.0 °F 24.6 °F 23.0 °F 64% 30.15 in 10.0 mi NNW 13.8 mph 27.6 mph N/A   Overcast
9:53 AM 35.1 °F 23.5 °F 21.9 °F 59% 30.15 in 10.0 mi North 21.9 mph 33.4 mph N/A   Overcast
10:53 AM 37.0 °F 27.4 °F 21.0 °F 52% 30.15 in 10.0 mi North 17.3 mph 29.9 mph N/A   Overcast
11:53 AM 39.9 °F 31.8 °F 21.0 °F 47% 30.15 in 10.0 mi North 15.0 mph 25.3 mph N/A   Mostly Cloudy
12:53 PM 41.0 °F 31.1 °F 21.0 °F 45% 30.15 in 10.0 mi NNW 23.0 mph 28.8 mph N/A   Mostly Cloudy
1:53 PM 39.9 °F 30.5 °F 21.0 °F 47% 30.14 in 10.0 mi NNW 19.6 mph 27.6 mph N/A   Mostly Cloudy
2:53 PM 39.0 °F 29.0 °F 18.0 °F 43% 30.16 in 10.0 mi NNW 20.7 mph 33.4 mph N/A   Mostly Cloudy
3:53 PM 39.9 °F 30.8 °F 18.0 °F 41% 30.16 in 10.0 mi North 18.4 mph 25.3 mph N/A   Mostly Cloudy
4:53 PM 39.9 °F 31.8 °F 18.0 °F 41% 30.17 in 10.0 mi North 15.0 mph 27.6 mph N/A   Mostly Cloudy
5:53 PM 37.0 °F 29.3 °F 19.0 °F 48% 30.19 in 10.0 mi NNW 11.5 mph - N/A   Clear
6:53 PM 34.0 °F 27.2 °F 19.0 °F 54% 30.22 in 10.0 mi NNW 8.1 mph - N/A   Partly Cloudy
7:53 PM 34.0 °F 27.2 °F 19.0 °F 54% 30.24 in 10.0 mi NW 8.1 mph - N/A   Clear
8:53 PM 33.1 °F 26.1 °F 19.0 °F 56% 30.25 in 10.0 mi WNW 8.1 mph - N/A   Clear
9:53 PM 30.9 °F 25.2 °F 19.0 °F 61% 30.26 in 10.0 mi NW 5.8 mph - N/A   Clear
10:53 PM 30.0 °F 24.1 °F 19.0 °F 64% 30.27 in 10.0 mi NW 5.8 mph - N/A   Clear
11:53 PM 28.9 °F 25.2 °F 19.9 °F 69% 30.27 in 10.0 mi NW 3.5 mph - N/A   Clear